EW8311 Weather Reports


Display with metric or nautical units.
time (UTC)temp
F
wind
direction
speed
MPH
gust
MPH
rain 1hr
in
rain 24hr
in
rain mn
in
humidity
%
barometer
mb
20260503200025 85 260 0.0 8.0 0.00 0.00 0.00 22 1004.9
20260503194523 85 99 1.0 5.0 0.00 0.00 0.00 22 1004.9
20260503193020 84 234 2.0 5.0 0.00 0.00 0.00 24 1005.1
20260503191516 84 146 3.0 6.0 0.00 0.00 0.00 25 1005.2
20260503190016 83 248 2.0 6.0 0.00 0.00 0.00 26 1005.4
20260503184512 82 285 0.0 5.0 0.00 0.00 0.00 28 1005.8
20260503183008 82 104 1.0 4.0 0.00 0.00 0.00 28 1006.1
20260503181520 81 98 1.0 5.0 0.00 0.00 0.00 28 1006.4
20260503180014 81 129 0.0 3.0 0.00 0.00 0.00 28 1006.4
20260503174504 81 99 0.0 5.0 0.00 0.00 0.00 30 1006.6
20260503173002 81 119 1.0 3.0 0.00 0.00 0.00 30 1006.8
20260503171600 80 121 0.0 3.0 0.00 0.00 0.00 30 1006.7
20260503170113 80 250 1.0 4.0 0.00 0.00 0.00 30 1006.8
20260503081557 75 100 0.0 7.0 0.00 0.00 0.00 32 1006.4
20260503071649 75 93 4.0 9.0 0.00 0.00 0.00 31 1006.6
20260503054540 77 79 4.0 11.0 0.00 0.00 0.00 30 1005.8
20260503053038 76 318 5.0 14.0 0.00 0.00 0.00 30 1005.8
20260503051537 76 316 4.0 10.0 0.00 0.00 0.00 30 1006.0
20260503050037 76 316 4.0 11.0 0.00 0.00 0.00 30 1006.0
20260503044549 77 90 4.0 13.0 0.00 0.00 0.00 29 1005.9
20260503043037 77 52 5.0 12.0 0.00 0.00 0.00 28 1005.7
20260503041537 77 53 3.0 11.0 0.00 0.00 0.00 28 1005.4
20260503040046 77 108 3.0 13.0 0.00 0.00 0.00 27 1005.1
20260503034535 78 94 4.0 10.0 0.00 0.00 0.00 27 1005.0
20260503033041 78 48 5.0 13.0 0.00 0.00 0.00 26 1005.0
20260503031533 79 308 4.0 12.0 0.00 0.00 0.00 26 1004.9
20260503030035 79 72 4.0 8.0 0.00 0.00 0.00 25 1004.7
20260503024536 79 119 2.0 8.0 0.00 0.00 0.00 25 1004.5
20260503023030 80 72 3.0 7.0 0.00 0.00 0.00 24 1004.5
20260503021531 81 75 2.0 7.0 0.00 0.00 0.00 24 1004.5
20260503020030 82 68 3.0 7.0 0.00 0.00 0.00 22 1004.5
20260503014531 82 117 2.0 8.0 0.00 0.00 0.00 21 1004.5
20260503013029 83 101 0.0 4.0 0.00 0.00 0.00 21 1004.4
20260503011533 84 122 2.0 5.0 0.00 0.00 0.00 20 1004.5
20260503010033 84 100 2.0 7.0 0.00 0.00 0.00 20 1004.5
20260503004527 85 84 0.0 4.0 0.00 0.00 0.00 19 1004.3
20260503003028 85 98 1.0 7.0 0.00 0.00 0.00 18 1004.3
20260503001527 87 95 1.0 4.0 0.00 0.00 0.00 18 1004.4
20260503000026 87 138 5.0 11.0 0.00 0.00 0.00 17 1004.3
20260502234534 87 319 2.0 4.0 0.00 0.00 0.00 17 1004.3
20260502233025 86 347 2.0 5.0 0.00 0.00 0.00 17 1004.4
20260502231522 86 243 0.0 6.0 0.00 0.00 0.00 16 1004.7
20260502230022 88 97 1.0 3.0 0.00 0.00 0.00 15 1004.7
20260502224520 87 90 3.0 7.0 0.00 0.00 0.00 16 1004.8
20260502223018 86 117 1.0 5.0 0.00 0.00 0.00 16 1005.0
20260502221515 87 116 4.0 11.0 0.00 0.00 0.00 16 1005.2
20260502220021 86 110 3.0 6.0 0.00 0.00 0.00 17 1005.4
20260502214509 85 98 2.0 5.0 0.00 0.00 0.00 18 1005.8
20260502213021 86 129 1.0 8.0 0.00 0.00 0.00 18 1005.9
20260502211507 84 139 2.0 6.0 0.00 0.00 0.00 19 1006.1
20260502210006 85 116 3.0 16.0 0.00 0.00 0.00 20 1006.2
20260502204503 84 248 2.0 8.0 0.00 0.00 0.00 19 1006.4
20260502203002 86 97 3.0 9.0 0.00 0.00 0.00 18 1006.6
20260502201501 87 317 1.0 6.0 0.00 0.00 0.00 17 1006.8